[Iaude] MPEC F16: 2015 FK36 [a=1.72,e=0.56,i=8.6,H=20.71]
    mpec at cfa.harvard.edu 
    mpec at cfa.harvard.edu
       
    Mon Mar 18 10:15:18 EDT 2024
    
    
  
M.P.E.C. 2024-F16                                Issued 2024 March 18, 14:13 UT
     The Minor Planet Electronic Circulars contain information on unusual
         minor planets, routine data on comets and natural satellites,
         and occasional editorial announcements.  They are published
    on behalf of Division F of the International Astronomical Union by the
          Minor Planet Center, Smithsonian Astrophysical Observatory,
                          Cambridge, MA 02138, U.S.A.
			  
             Prepared using the Tamkin Foundation Computer Network
                              MPC at CFA.HARVARD.EDU
            URL https://www.minorplanetcenter.net/    ISSN 1523-6714
                                   2015 FK36                                    
                           Revision to MPEC 2015-F95                            
Additional Observations:
     K15F36K  C2024 03 13.42922 12 13 34.43 -13 19 52.2          22.0 GVEF016V06
     K15F36K  C2024 03 13.43640 12 13 33.68 -13 19 52.9          22.7 GVEF016V06
     K15F36K 7C2024 03 16.03635012 08 58.811-13 20 27.66         21.0 GVEF016Z84
     K15F36K 7C2024 03 16.04523412 08 57.788-13 20 27.37               VEF016Z84
     K15F36K 7C2024 03 16.05861212 08 56.292-13 20 27.08         21.3 GVEF016Z84
Observer details:
V06 Catalina Sky Survey-Kuiper.  Observer G. J. Leonard.  Measurers B. Gray,
    D. Rankin, F. C. Shelly.  1.55-m reflector + CCD.
Z84 Calar Alto-Schmidt.  Observers F. Ocana, R. Kresken, M. Micheli, L.
    Conversi.  Measurers F. Ocana, M. Micheli.  0.8-m f/3 Schmidt + CCD.
First and last observations above in comparison with prediction:
Residuals in seconds of arc (or two decimals in degrees), reference and Delta-T
240313 V06 0.03- 0.02-    240316 Z84 0.03- 0.02-    E2024-AE1   -0.01 days
Orbital elements:
2015 FK36                                                Earth MOID = 0.1212 AU
Epoch 2024 Mar. 31.0 TT = JDT 2460400.5                 Veres                   
M 304.48683              (2000.0)            P               Q                  
n   0.43774831     Peri.  344.45166     +0.63155681     +0.77044821             
a   1.7178546      Node   324.58385     -0.69441279     +0.51225103             
e   0.5645466      Incl.    8.62077     -0.34485774     +0.37948444             
P   2.25           H   20.71          G   0.15           U   1                  
Residuals in seconds of arc
150321 F51  0.1+  0.0     150329 705  0.0   0.1+    150423 J04  0.1+  0.1-
150321 F51  0.1+  0.0     150329 705  0.1+  0.2-    150423 J04  0.1-  0.4+
150321 F51  0.0   0.2+    150410 F51  0.1-  0.0     150514 807  0.2-  0.2-
150322 291  0.4-  0.1-    150410 F51  0.0   0.3-    150514 807  0.0   0.3+
150322 291  0.4+  0.3-    150410 F51  0.1-  0.5-    150514 807  0.6+  0.5-
150322 291  0.0   0.3+    150410 F51  0.0   0.2-    150930 291  0.1+  0.2-
150322 568  0.1-  0.1+    150415 291  1.1+  0.5+    150930 291  0.3-  0.3-
150322 568  0.0   0.1+    150415 291  0.0   0.1+    150930 291  0.1+  0.1+
150322 568  0.1-  0.1+    150415 291  0.5+  1.0+    240313 V06  0.1-  0.1+
150323 H21  0.0   0.0     150416 291  0.8+  1.4+    240313 V06  0.0   0.4-
150323 H21  0.3+  0.4+    150416 291  1.4-  0.4-    240316 Z84  0.1-  0.2-
150323 H21  0.9+  0.4+    150416 291  1.0-  0.0     240316 Z84  0.3-  0.1-
150324 568  0.2-  0.0     150423 291  0.1+  0.4-    240316 Z84  0.1+  0.1+
150324 568  0.1-  0.0     150423 291  0.2-  0.3-
150329 705  0.0   0.0     150423 291  0.1+  0.2+
Ephemeris:
2015 FK36                a,e,i = 1.72, 0.56, 9                   q = 0.7480
Date    TT    R. A. (2000) Decl.     Delta      r    Elong.  Phase     V
2024 02 17    12 39 24.4 -11 45 02   1.1634  1.9772   133.4    21.3    23.6
...
2024 03 03    12 28 18.7 -12 57 51   0.9572  1.8806   149.6    15.5    22.8
...
2024 03 11    12 17 32.7 -13 17 21   0.8649  1.8262   158.6    11.4    22.4
...
2024 03 17    12 07 11.7 -13 19 59   0.8053  1.7841   164.5     8.6    22.1
2024 03 18    12 05 17.6 -13 19 18   0.7962  1.7769   165.3     8.2    22.0
2024 03 19    12 03 20.7 -13 18 18   0.7874  1.7698   166.0     7.8    22.0
...
2024 03 25    11 50 45.4 -13 05 06   0.7397  1.7261   167.0     7.5    21.8
...
2024 04 02    11 32 13.6 -12 28 12   0.6905  1.6661   160.4    11.6    21.7
...
2024 04 17    10 57 19.0 -10 32 19   0.6391  1.5481   139.9    24.7    21.8
A. U. Tomatic                (C) Copyright 2024 MPC           M.P.E.C. 2024-F16
    
    
More information about the Iaude
mailing list